Flag Weather past 2 weeks in Rust, Burgenland, Austria

Now
44 °F

Quite cool.


Feels Like: 44 °F
Forecast: 37 / 57 °F
Wind: 1 mph from Northwest

Location: Eisenstadt

Current Time: Oct 31, 2014 at 9:34:24 AM

Latest Report: Oct 31, 2014 at 8:00 AM


Visibility: N/A

Pressure: 30.36 "Hg

Humidity: 91%

Dew point: 42 °F

Location of RustLocation

Historic Weather in Rust — Graph

°F

Rust temperature yesterday

Maximum temperature yesterday: 47 °F (at 4:00 PM)
Minimum temperature yesterday: 42 °F (at 7:00 PM)
Average temperature yesterday: 44 °F

Past Weeks' High & Low Weather Summary

 TemperatureHumidityPressure
High72 °F (Oct 20, 1:00 PM)100% (Oct 26, 7:00 AM)30.47 "Hg (Oct 26, 7:00 AM)
Low35 °F (Oct 28, 8:00 AM)53% (Oct 20, 1:00 PM)29.61 "Hg (Oct 22, 1:00 AM)
Average50 °F84%30.11 "Hg
* Reported Oct 16 9:00 AM — Oct 31 8:00 AM, Rust, Weather by CustomWeather, © 2014

Note: Actual official high and low records may vary slightly from our data, if they occured in-between our weather recording intervals... More about our weather records

Advertising

Rust weather history for previous 24 hours

 ConditionsComfort  
Time TempWeatherWind HumidityBarometerVisibility
8:00 AM
Oct 31
44 °FQuite cool.1 mph91%30.36 "HgN/A
7:00 AM44 °FFog.2 mph91%30.35 "Hg2 mi
6:00 AM44 °FOvercast.3 mph91%30.34 "Hg6 mi
5:00 AM44 °FOvercast.3 mph89%30.35 "Hg6 mi
4:00 AM43 °FQuite cool.3 mph91%30.34 "HgN/A
3:00 AM42 °FQuite cool.2 mph94%30.34 "HgN/A
2:00 AM43 °FQuite cool.2 mph93%30.35 "HgN/A
1:00 AM42 °FPassing clouds.3 mph93%30.35 "Hg6 mi
12:00 AM42 °FQuite cool.3 mph92%30.36 "HgN/A
11:00 PM
Oct 30
43 °FQuite cool.3 mph91%30.35 "HgN/A
10:00 PM44 °FPassing clouds.3 mph88%30.35 "Hg6 mi
9:00 PM44 °FQuite cool.1 mph90%30.35 "HgN/A
8:00 PM43 °FQuite cool.2 mph90%30.34 "HgN/A
7:00 PM42 °FClear.2 mph92%30.33 "Hg6 mi
6:00 PM44 °FQuite cool.2 mph90%30.32 "HgN/A
5:00 PM46 °FCool.1 mph85%30.31 "HgN/A
4:00 PM47 °FFog.1 mph84%30.30 "Hg3 mi
3:00 PM46 °FCool.1 mph83%30.29 "HgN/A
2:00 PM46 °FCool.1 mph82%30.29 "HgN/A
1:00 PM46 °FFog.1 mph83%30.29 "Hg3 mi
12:00 PM45 °FQuite cool.1 mph85%30.30 "HgN/A
11:00 AM44 °FQuite cool.1 mph87%30.30 "HgN/A
10:00 AM43 °FFog.1 mph89%30.30 "Hg2 mi
9:00 AM43 °FQuite cool.No wind89%30.29 "HgN/A
Weather by CustomWeather, © 2014

See weather overviewHow to use our weather pages